Location: Deich-und Sielrott
(53.6676°N, 7.3420°E)
Time: 17:30:34
(UTC+00:00)

Daily predictions for brighter satellites

Satellite Brightness Start Highest point End
(mag) Time Altitude Azimuth Time Altitude Azimuth Time Altitude Azimuth
Cosmos 2333 Rocket 2.8 20:43:49 10° S 20:48:59 37° ESE 20:54:11 10° NE
Cosmos 1315 Rocket 3.2 20:45:36 10° N 20:49:39 55° ENE 20:53:42 10° SSE
ATLAS 2AS CENTAUR R/B 3.4 20:42:10 10° NW 20:49:56 60° NNE 20:57:03 10° ESE
CZ-2C R/B 4.3 20:47:07 10° N 20:52:09 38° WNW 20:57:03 10° SW
Cosmos-2242 3.5 20:48:50 10° NNW 20:53:08 62° W 20:57:26 10° S
Resurs 01 Rocket 3.5 20:49:56 10° SSW 20:53:41 27° W 20:57:28 10° NW
Cosmos 1818 3.6 20:50:40 10° SSW 20:56:04 70° SE 21:01:31 10° NE
Cosmos 2221 3.3 20:53:54 10° N 20:58:04 41° ENE 21:02:12 10° SE
Cosmos 773 Rocket 4.2 20:53:50 10° S 20:58:59 55° ESE 21:04:11 10° NNE
SL-16 R/B 3.3 20:54:27 10° SW 20:59:59 51° NW 21:05:33 10° NNE
GEOS 3 Rocket 3.8 20:56:58 10° NE 21:02:19 59° SE 21:07:39 10° SSW
ERS-1 Rocket 3.1 20:57:52 10° SSE 21:02:56 79° WSW 21:08:00 10° NNW
USA 215 3.7 20:59:40 10° ENE 21:05:47 40° SE 21:11:50 10° SSW
Cosmos 2278 Rocket 2.5 21:01:36 10° NNW 21:07:17 66° NE 21:12:54 10° SE
Cosmos 1892 4.3 21:07:14 10° SE 21:10:01 20° E 21:12:50 10° NE
Cosmos 1844 Rocket 3.9 21:06:48 10° NW 21:11:49 35° WSW 21:16:49 10° S
Cosmos 1400 Rocket 4.1 21:08:45 10° NNW 21:12:27 36° W 21:16:04 10° SSW
ATLAS 5 CENTAUR R/B 1.5 21:08:23 10° SW 21:12:36 74° SE 21:17:28 10° NE
Meteor 1-11 4.3 21:08:03 10° S 21:13:41 78° E 21:19:25 10° NNE
Cosmos 1943 Rocket 4.2 21:10:16 10° NNW 21:14:45 23° NNE 21:19:12 10° E
SPOT 5 3.2 21:14:40 10° S 21:19:40 66° WSW 21:24:25 10° NNW
Lacrosse 5 rocket 2.2 21:16:17 10° W 21:20:26 53° N 21:24:21 10° ENE
USA 81 4.1 21:21:18 10° S 21:26:35 89° W 21:31:55 10° N
Cosmos 2181 Rocket 4.3 21:20:53 10° NNW 21:27:13 69° W 21:33:25 10° S
Cosmos 2058 3.9 21:25:00 11° SSE 21:28:25 31° E 21:32:06 10° NNE
Cosmos 1408 4.2 21:29:06 11° SE 21:31:28 20° E 21:34:08 10° NE
TSX-5 3.5 21:30:45 10° NW 21:34:07 85° SW 21:37:35 13° SSE
Cosmos 2074 Rocket 4.1 21:29:41 10° S 21:35:49 64° E 21:41:58 10° NNE
Cosmos 1076 Rocket 4.3 21:36:08 13° SSE 21:39:37 37° E 21:43:33 10° NNE
Cosmos 1953 Rocket 4.3 21:35:37 10° SSW 21:39:50 52° WNW 21:44:06 10° N
Cosmos 1680 Rocket 4.4 21:35:41 12° SSE 21:39:58 32° ESE 21:44:38 10° NE
USA 267 3.4 21:34:20 10° SE 21:40:51 65° SSW 21:47:24 10° WNW
CZ-4C R/B 3.9 21:37:12 10° NW 21:43:14 42° NNE 21:50:23 10° E
Cosmos 2084 4.5 21:40:30 10° WNW 21:44:35 36° SW 21:48:05 13° S
Cosmos 1842 Rocket 3.8 21:40:36 10° NNW 21:44:57 66° W 21:49:02 11° S
JB-3 4.3 21:42:38 10° NNE 21:46:29 61° ESE 21:49:57 12° S
COSMOS 2455 4.0 21:41:29 10° NW 21:47:10 40° NNE 21:52:49 10° ESE
Cosmos 2322 Rocket 4.1 21:42:29 10° WSW 21:47:33 33° NW 21:52:39 10° NNE
Cosmos 2151 4.5 21:47:18 13° SE 21:50:11 23° E 21:53:35 10° NE
MTI 3.6 21:47:25 10° NNE 21:50:31 72° ESE 21:53:10 13° S
ATLAS CENTAUR R/B 2.7 21:52:54 10° WNW 21:55:54 24° WSW 21:58:26 12° S
Cosmos 923 Rocket 4.3 21:52:20 10° S 21:57:20 52° ESE 22:02:29 10° NNE
Cosmos 2369 Rocket 3.9 21:54:35 10° NNW 21:59:23 28° NE 22:04:11 10° E
Cosmos 1151 Rocket 4.5 21:55:56 10° N 21:59:41 27° ENE 22:03:13 11° SE
Cosmos 1825 3.4 21:58:09 15° SE 22:00:31 28° E 22:03:49 10° NNE
ALOS 2 3.6 21:58:03 12° SE 22:01:44 37° ENE 22:05:48 10° N
Cosmos 1980 4.1 21:56:55 11° S 22:02:08 47° ESE 22:07:32 10° NE
Cosmos 1869 4.1 22:02:04 10° NNW 22:05:53 46° W 22:09:22 12° SSW
COSMOS 2428 2.8 22:01:19 10° SSW 22:07:00 84° WNW 22:12:44 10° NNE
Cosmos 371 Rocket 4.3 22:02:35 10° NNW 22:07:13 40° NE 22:11:46 10° SE
GP-B 4.4 22:04:22 10° NNE 22:08:16 29° E 22:11:23 14° SE
Cosmos 2322 4.5 22:05:24 10° SW 22:11:02 56° NW 22:16:41 10° NNE
Cosmos 1624 Rocket 4.0 22:07:27 10° NNW 22:12:44 82° ENE 22:16:57 16° SSE
NOSS 3-4 (A) 3.9 22:06:22 10° NW 22:13:11 70° SW 22:19:46 14° SSE
NOSS 3-4 (C) 3.9 22:06:29 10° NW 22:13:17 70° SW 22:19:54 14° SSE
NOSS 0 Rocket 4.0 22:08:24 10° SSW 22:14:28 65° ESE 22:20:35 10° NE
Terra 3.3 22:11:03 10° SSW 22:15:14 30° W 22:19:28 10° NNW
Cosmos 2237 Rocket 2.3 22:14:58 11° SSW 22:20:22 59° ESE 22:25:59 10° NE
Genesis I 4.0 22:18:36 18° S 22:20:49 32° ESE 22:24:18 10° ENE
SL-4 R/B 3.0 22:19:54 11° E 22:20:53 14° ENE 22:22:08 10° NNE
Cosmos 2219 Rocket 2.7 22:17:20 10° SW 22:22:53 63° NW 22:28:29 10° NNE
Cosmos 2344 3.9 22:16:03 10° S 22:23:00 44° ESE 22:30:35 10° NE
Cosmos 2360 Rocket 4.1 22:20:22 10° WSW 22:25:26 32° NW 22:30:32 10° NNE
NOSS 3-3 (A) 4.1 22:19:30 10° SW 22:25:32 88° NW 22:32:30 10° NE
NOSS 3-3 (C) 4.1 22:19:36 10° SW 22:25:39 89° NW 22:32:37 10° NE
Thor Agena Rocket 3.5 22:23:59 10° NNE 22:29:08 72° ESE 22:33:18 15° S
Cosmos 2333 Rocket 3.0 22:27:31 10° SW 22:33:07 54° NW 22:38:45 10° NNE
Cosmos 2184 Rocket 4.5 22:27:57 10° SSW 22:34:06 59° WNW 22:40:22 10° N
Cosmos 2221 4.2 22:31:46 10° NNW 22:35:29 27° W 22:39:10 10° SW
RESURS DK-1 4.4 22:34:23 10° NNW 22:37:53 25° NE 22:41:21 10° E
Iridium 2 4.1 22:36:01 10° NNW 22:39:47 57° W 22:42:26 18° SSW
Cosmos 1371 Rocket 4.3 22:35:16 10° NNW 22:40:26 58° WSW 22:44:15 18° S
BREEZE-M DEB (TANK) 2.4 22:37:15 10° W 22:40:42 29° SSW 22:41:21 25° S
ATLAS 2AS CENTAUR R/B 3.1 22:33:35 10° NW 22:41:00 56° SW 22:46:24 17° SSE
EO 1 Del DPAF 3.1 22:38:31 10° NNE 22:42:19 87° ESE 22:44:59 18° SSW
MOS 1-B Rocket 4.5 22:35:54 10° NNE 22:43:56 81° ESE 22:49:57 14° SSW
Cosmos 1892 3.6 22:41:59 11° SW 22:45:26 44° WNW 22:49:07 10° N
Cosmos 1766 Rocket 3.9 22:44:24 20° SSE 22:47:13 52° E 22:51:32 10° NNE
Cosmos 1328 Rocket 3.7 22:43:11 10° N 22:47:30 66° ENE 22:50:25 20° SSE
Aureole 2 Rocket 2.0 22:44:53 10° NNW 22:47:40 65° WSW 22:48:59 28° S
USA 215 3.3 22:42:42 10° ENE 22:49:18 86° SSE 22:55:53 10° WSW
Cosmos 1606 2.7 22:45:59 10° N 22:49:53 86° E 22:52:19 22° SSE
Okean 3 Rocket 3.7 22:47:03 20° S 22:50:02 64° E 22:54:26 10° NNE
Cosmos 2278 Rocket 3.5 22:46:12 10° NW 22:50:59 28° WSW 22:54:59 13° SSW
Cosmos 2297 3.7 22:47:06 10° NW 22:52:52 76° WSW 22:57:11 18° SSE
Cosmos 2112 Rocket 4.1 22:48:23 12° SSW 22:53:22 90° SSW 22:58:46 10° NNE
Cosmos 2228 Rocket 4.5 22:51:26 10° N 22:55:36 33° ENE 22:59:19 12° SE
Cosmos 2218 Rocket 4.3 22:50:54 18° SSE 22:55:39 58° E 23:01:50 10° NNE
Cosmos 1420 Rocket 4.0 22:51:24 10° NNW 22:56:42 83° WSW 23:00:36 19° SSE
Cosmos 158 Rocket 3.9 22:52:56 12° SSW 22:57:32 79° WNW 23:02:30 10° NNE
ATLAS 5 CENTAUR R/B 3.5 22:53:29 10° W 22:57:39 36° NNW 23:02:27 10° NE
Cosmos 1943 Rocket 2.4 22:53:51 10° NNW 22:59:33 70° NE 23:04:40 13° SE
Lacrosse 5 rocket 1.5 22:55:51 10° WNW 22:59:56 71° NNE 23:03:48 10° ESE
Cosmos 2366 rocket 4.3 22:56:35 18° SSE 23:01:20 61° E 23:07:35 10° NNE
Cosmos 1633 4.0 23:01:11 17° SE 23:03:02 26° E 23:06:06 10° NNE
Cosmos 2056 Rocket 4.2 22:59:10 10° NW 23:04:18 45° WSW 23:07:58 18° S
SL-16 R/B 2.5 23:00:47 19° S 23:04:43 51° ESE 23:10:13 10° NE
TIMED 4.5 23:01:49 17° SSW 23:05:07 84° ESE 23:09:32 10° NNE
Cosmos 2058 4.4 23:01:33 10° SW 23:05:19 32° WNW 23:09:05 10° N
Cosmos 1408 3.6 23:03:24 13° SW 23:06:16 39° WNW 23:09:40 10° N
YAOGAN 11 4.3 23:09:09 19° SSE 23:12:15 69° ENE 23:16:41 10° NNW
Cosmos 2341 Rocket 4.1 23:11:47 15° SSW 23:16:59 73° WNW 23:23:14 10° N
Cosmos 332 Rocket 3.7 23:13:16 10° NNW 23:18:06 82° WSW 23:21:28 20° SSE
Cosmos 1680 Rocket 4.2 23:16:40 10° SW 23:21:53 53° WNW 23:27:07 10° NNE
USA 267 4.4 23:21:24 17° SSW 23:24:44 25° SW 23:29:59 10° WNW
Meteor 2-3 Rocket 3.8 23:21:02 20° S 23:25:03 70° E 23:30:46 10° NNE
Cosmos 405 3.1 23:23:31 10° N 23:27:05 71° ENE 23:29:08 23° SSE
IRIDIUM 104 4.4 23:23:26 19° SSW 23:27:13 76° W 23:32:28 10° N
Cosmos 2151 3.8 23:23:52 15° SW 23:27:13 46° WNW 23:31:22 10° N
Helios 1A 3.0 23:24:53 22° S 23:27:28 73° WSW 23:31:40 10° NNW
Meteor 1-26 Rocket 4.4 23:25:00 10° NNW 23:31:01 74° W 23:35:20 19° S
Cosmos 1452 Rocket 3.6 23:26:14 10° NNW 23:31:28 66° WSW 23:35:06 20° S
CZ-4C R/B 3.0 23:25:50 10° NW 23:32:41 81° NE 23:40:46 10° SE
COSMOS 2455 2.9 23:27:30 10° NW 23:33:32 69° SW 23:38:24 16° SSE
PSLV R/B 4.4 23:30:07 10° NNE 23:34:03 36° E 23:36:34 19° SSE
Cosmos 1110 Rocket 4.3 23:30:09 10° NNW 23:35:26 67° ENE 23:40:16 12° SE
Cosmos 1933 4.1 23:32:04 10° NNW 23:35:53 42° W 23:38:13 21° SSW
SL-8 Rocket 4.1 23:30:59 16° SSW 23:35:57 70° WNW 23:42:07 10° N
Cosmos 1825 3.7 23:32:56 12° SW 23:36:00 30° WNW 23:39:24 10° N
Cosmos 1340 2.6 23:34:23 23° SSW 23:36:37 84° WNW 23:40:25 10° NNE
Cosmos 1151 Rocket 3.8 23:33:18 10° NNW 23:37:24 41° W 23:40:03 19° SSW
ALOS 2 3.7 23:35:27 17° SSW 23:38:08 32° W 23:42:06 10° NNW
Cosmos 1408 Rocket 3.6 23:35:56 21° SSW 23:38:48 84° W 23:43:15 10° N
SL-16 R/B 4.0 23:34:21 10° ESE 23:39:49 33° NE 23:45:19 10° N
Cosmos 1727 Rocket 4.1 23:37:12 10° NNW 23:43:25 73° W 23:48:04 19° S
APEX 3.4 23:41:18 10° NW 23:43:47 30° WSW 23:44:22 27° SW
Resurs 1-4 Rocket 4.3 23:41:04 10° NE 23:44:02 15° E 23:46:58 10° ESE
Cosmos 2369 Rocket 2.1 23:38:27 10° NNW 23:44:06 85° WSW 23:48:50 15° SSE
GP-B 4.1 23:41:33 10° NNW 23:45:42 39° W 23:48:50 16° SW
Cosmos 44 3.0 23:43:38 16° SW 23:47:03 82° SE 23:51:33 10° NE
Cosmos 1500 Rocket 3.7 23:44:49 22° S 23:47:36 65° E 23:51:58 10° NNE
Cosmos 371 Rocket 4.1 23:43:08 10° NW 23:47:37 37° WSW 23:50:25 20° SSW
SeaSat 1 4.5 23:45:24 10° ENE 23:48:22 16° ESE 23:51:19 10° SE
SL-4 R/B 2.5 23:48:59 17° W 23:49:03 17° W 23:50:34 10° NW
Helios 1B rocket 3.1 23:48:54 10° NNE 23:52:53 45° E 23:55:23 20° SSE
CREW DRAGON DEMO-1 DEB 3.1 23:54:48 19° SW 23:56:41 45° SSE 23:59:39 10° E
